Location: G�yn�k
(36.6721°N, 30.5542°E)
Time: 13:25:16
(UTC+00:00)

Cosmos 1151 Rocket - Pass Details

Date: 07 June 2020
Orbit: 593 x 615 km, 82.5° (Epoch: 13 July)

Event Time Altitude Azimuth Distance (km) Brightness Sun altitude
Rises 01:36:36 0° 349° (NNW) 2,892 6.9 -11.1°
Reaches altitude 10° 01:38:51 10° 345° (NNW) 1,983 6.0 -10.8°
Maximum altitude 01:43:11 61° 266° (W) 701 3.1 -10.1°
Drops below altitude 10° 01:47:28 10° 186° (S) 1,964 5.2 -9.4°
Sets 01:49:41 0° 183° (S) 2,862 6.1 -9.1°
Enters shadow 01:49:48 - 183° (S) 2,906 6.1 -9.1°
